GFSNGP_925_temp_015.txt.gz
Temp
25 24 25 25 26 26 25 25 24 25 27 28 28 27 27 26 25 25 24 22 22 20 19 17 16 15 14 13 12 12 12 12 11 10 9 9 8 7 7 6 6 6 6 5
21 24 23 23 25 25 26 26 26 26 26 28 27 27 25 25 24 23 23 22 21 20 19 17 16 15 14 12 13 12 11 11 10 10 9 8 7 7 6 6 6 6 6 5
21 20 21 18 21 24 25 26 26 24 26 27 25 24 24 24 23 22 22 21 20 20 18 17 17 15 14 13 12 11 11 10 10 9 8 7 7 7 7 6 6 6 5 5
20 15 16 25 24 25 24 26 26 26 26 26 24 24 24 24 23 22 21 21 20 19 18 17 16 15 13 13 12 11 10 10 9 8 7 7 7 7 7 6 6 5 5 4
17 20 23 24 25 23 23 24 26 25 25 25 23 21 23 23 22 22 22 21 20 19 18 17 15 15 13 12 11 10 9 9 8 7 7 7 7 6 6 5 5 5 5 4
18 17 16 22 22 21 22 22 23 23 23 23 22 20 23 22 22 21 21 20 19 18 17 16 15 13 12 11 10 10 9 8 7 6 6 6 6 6 5 5 5 5 4 3
18 17 20 23 22 21 20 21 22 22 22 22 21 22 21 20 21 21 20 19 18 17 16 15 13 10 10 9 8 8 6 6 6 6 6 5 5 5 5 4 4 4 2 2
18 15 16 22 21 20 21 21 21 21 21 20 20 21 21 19 19 19 19 18 16 15 14 11 9 8 7 6 7 5 5 5 5 5 4 4 4 4 4 4 4 3 2 1
20 21 21 22 22 22 21 20 20 20 20 20 20 20 20 19 18 17 17 15 13 11 9 7 5 4 5 6 5 5 5 4 4 4 3 3 3 3 4 4 4 3 2 0
19 22 22 22 22 21 21 20 21 21 20 20 19 19 19 19 16 15 15 12 10 7 4 3 3 3 5 4 3 3 3 2 2 2 2 1 1 2 3 4 3 2 2 1
20 21 22 22 21 20 20 20 19 19 19 17 16 17 18 16 14 13 10 6 4 2 2 3 4 4 3 3 2 1 1 2 2 2 2 2 2 1 1 1 1 1 1 1
18 20 20 20 19 18 18 17 16 16 16 15 15 15 15 12 10 6 4 2 2 2 4 4 3 3 2 2 1 0 1 1 1 2 2 2 2 1 0 -0 -0 -0 0 -0
18 18 18 18 16 15 14 14 13 12 12 11 10 9 7 3 2 3 2 2 3 4 4 4 3 2 2 1 1 0 1 1 1 2 2 2 1 0 -0 -1 -0 -1 -1 -1
16 16 17 14 14 12 11 10 7 6 6 5 4 3 3 2 2 3 4 5 5 4 4 3 2 2 2 2 1 1 0 1 1 2 1 0 1 0 -0 -1 -1 -1 -1 -2
14 14 13 12 11 9 7 5 4 4 4 5 5 5 6 6 6 6 6 5 4 3 3 3 3 3 3 3 2 2 2 2 1 0 -0 -1 -1 -2 -1 -1 -1 -1 -1 -2
13 12 11 9 7 5 4 5 5 6 7 6 7 7 7 6 6 5 5 4 2 3 3 3 2 2 2 2 2 2 2 2 1 0 -0 -0 -1 -1 -1 -1 -1 -1 -1 -2
9 8 8 6 4 4 7 8 8 8 7 6 5 2 3 2 2 4 3 3 1 1 1 1 2 1 1 2 2 2 3 2 1 0 -0 -1 -1 -1 -1 -1 -1 -1 -1 -2
10 8 7 7 7 7 7 6 4 4 3 2 1 1 0 -0 -0 0 0 0 1 1 2 2 1 0 1 2 2 2 2 1 0 -1 -1 -1 -1 -1 -1 -1 -1 -1 -1 -1
7 7 7 7 6 4 4 3 1 2 1 0 -0 -1 -0 -0 -0 -1 -0 -1 -1 0 3 1 1 -0 -1 0 -0 0 0 -0 -1 -1 -1 -1 -1 -1 -2 -2 -2 -2 -2 -2
7 7 6 4 2 2 1 -0 1 2 1 -0 -1 -1 -1 -1 -2 -2 -1 -1 0 0 -1 -1 -1 -1 -0 -0 -0 -1 -1 -1 -1 -1 -1 -1 -2 -2 -2 -2 -2 -2 -2 -2
6 4 2 0 -1 -1 -1 -1 -1 -1 -1 -2 -2 -2 -3 -3 -3 -3 -2 -1 0 -2 -2 -3 -3 -3 -3 -3 -2 -2 -1 -1 -2 -2 -2 -2 -3 -3 -2 -2 -3 -3 -3 -3
4 2 0 0 -0 -1 -2 -2 -3 -3 -3 -3 -3 -3 -3 -1 -2 -2 -2 -2 -2 -4 -4 -4 -4 -3 -3 -3 -3 -3 -3 -3 -2 -2 -3 -3 -3 -4 -4 -3 -3 -4 -3 -3
3 1 -0 -1 -1 -2 -2 -3 -3 -3 -3 -3 -3 -4 -3 -3 -2 -2 -2 -3 -5 -5 -6 -5 -6 -6 -5 -4 -4 -3 -3 -3 -3 -3 -4 -5 -6 -6 -6 -5 -6 -6 -6 -6
2 -0 -2 -2 -2 -1 -0 -1 -2 -2 -4 -3 -3 -4 -5 -4 -4 -4 -5 -6 -7 -8 -7 -8 -9 -9 -8 -7 -7 -7 -6 -6 -7 -7 -7 -8 -8 -8 -8 -8 -8 -8 -8 -8
-1 -1 -1 -1 1 0 -1 -2 -2 -2 -3 -3 -4 -5 -6 -6 -6 -6 -7 -8 -9 -9 -9 -9 -10 -11 -10 -10 -10 -10 -10 -10 -10 -10 -11 -10 -10 -10 -10 -10 -10 -11 -11 -10
1 1 -1 -2 -3 -3 -3 -4 -4 -4 -5 -5 -6 -6 -7 -7 -8 -8 -9 -9 -9 -10 -10 -10 -11 -12 -12 -12 -12 -12 -12 -12 -13 -13 -13 -13 -13 -12 -12 -13 -13 -13 -12 -12
-3 -2 -2 -2 -4 -5 -6 -6 -6 -6 -6 -8 -8 -7 -7 -8 -9 -10 -10 -10 -11 -11 -11 -11 -12 -12 -13 -13 -13 -13 -14 -14 -14 -15 -15 -15 -15 -14 -15 -15 -15 -14 -14 -14

GFSNGP_925_temp_021.txt.gz
Temp
22 22 23 24 24 23 23 20 17 19 21 21 23 22 22 20 22 24 21 21 18 17 16 16 16 15 15 15 14 13 12 12 12 11 11 10 9 9 8 7 7 7 6 6
21 21 20 20 21 21 21 23 23 22 21 23 21 21 21 21 22 21 21 19 19 17 16 16 15 14 15 15 14 13 12 12 12 10 10 9 8 8 7 7 7 7 6 6
17 16 17 15 19 20 21 22 22 20 21 21 20 20 19 19 19 21 19 19 19 17 17 16 15 16 15 15 14 13 13 12 11 9 9 8 7 7 7 6 7 6 6 6
12 13 14 18 22 22 21 21 20 20 19 19 19 18 18 18 17 17 18 18 18 18 18 18 17 17 16 14 13 12 12 9 9 8 7 6 6 6 5 5 4 6 6 5
12 12 16 19 21 21 21 19 19 18 19 19 19 16 16 16 16 17 18 18 19 20 20 19 18 17 15 13 12 10 7 7 7 6 5 5 5 4 4 4 4 5 5 5
11 12 12 16 21 21 22 15 18 18 17 18 17 11 14 17 17 16 16 12 11 11 12 13 13 13 10 7 5 4 4 5 5 4 4 4 3 3 3 4 4 4 4 4
8 9 12 18 20 21 16 15 19 19 17 17 15 14 17 18 16 14 10 8 7 7 6 5 6 6 5 3 3 3 4 3 3 3 3 3 3 3 3 3 3 3 3 3
10 11 13 19 20 17 15 18 17 17 18 17 17 16 16 15 14 11 8 7 5 4 4 4 4 3 2 2 3 3 3 2 2 4 2 2 3 3 2 2 2 2 3 3
13 12 15 21 18 18 17 17 18 17 16 16 14 14 14 13 10 9 6 4 3 3 3 3 4 5 3 3 4 4 3 2 2 1 2 2 2 2 2 1 1 1 1 2
15 19 19 19 19 16 15 15 14 14 13 13 13 12 11 9 7 6 5 4 3 3 3 3 4 4 4 3 3 3 2 2 2 1 1 2 2 2 2 1 1 1 1 0
16 19 16 15 15 15 14 14 12 11 10 11 10 9 8 6 5 4 4 3 3 3 3 3 3 3 3 3 3 3 2 2 1 1 1 1 1 2 2 2 1 1 1 0
10 16 14 13 13 13 12 11 11 9 7 7 7 6 5 4 3 3 2 3 3 3 3 4 4 4 3 3 3 2 2 1 1 1 1 1 1 1 1 1 1 1 0 0
14 14 12 11 9 9 8 7 7 7 6 5 5 4 3 2 2 3 3 3 4 4 4 4 4 4 3 3 3 2 2 2 1 1 1 1 1 1 1 1 0 -0 -0 -0
13 12 11 11 8 7 6 5 5 5 5 4 3 3 3 3 3 4 4 5 5 4 4 4 4 3 3 3 3 3 2 2 2 2 1 1 1 1 1 -0 -1 -1 0 -0
11 10 9 7 7 6 6 6 5 4 5 4 4 4 4 5 5 4 3 3 3 3 3 2 2 2 1 1 1 1 2 2 2 2 2 2 2 1 1 0 -0 -0 -1 -1
10 9 7 6 6 5 6 6 5 4 3 2 2 1 2 2 2 1 1 1 0 -1 -1 -1 -1 -1 -0 -0 -0 -0 -0 -0 -0 -0 0 0 0 -0 -0 -1 -2 -2 -2 -2
6 5 5 6 5 6 5 5 3 3 2 -1 -1 -2 -1 -1 -2 -2 -2 -2 -2 -2 -2 -3 -3 -2 -2 -2 -2 -2 -2 -2 -2 -2 -1 -1 -1 -1 -1 -2 -2 -2 -2 -2
9 7 6 6 5 4 3 1 -0 -1 -2 -2 -2 -2 -2 -2 -3 -2 -3 -2 -2 -2 -3 -4 -4 -4 -4 -4 -5 -5 -5 -4 -4 -4 -3 -3 -2 -2 -1 -1 -2 -2 -2 -2
6 6 5 4 3 2 0 -1 -2 -2 -2 -2 -2 -2 -2 -2 -2 -2 -2 -2 -4 -4 -5 -5 -5 -5 -6 -6 -6 -6 -5 -6 -5 -5 -4 -4 -4 -3 -3 -3 -2 -2 -2 -3
3 2 2 0 -0 -1 -1 -1 -2 -3 -3 -2 -3 -3 -3 -2 -2 -2 -2 -5 -6 -7 -6 -7 -7 -8 -8 -8 -8 -8 -8 -7 -7 -7 -7 -6 -5 -4 -4 -3 -4 -4 -4 -4
1 -1 -1 -1 -2 -2 -2 -2 -2 -3 -3 -3 -3 -3 -3 -3 -3 -3 -4 -6 -7 -7 -7 -8 -9 -10 -10 -10 -10 -10 -10 -10 -10 -10 -9 -9 -8 -7 -7 -8 -7 -7 -7 -7
-0 -1 -2 -2 -2 -3 -3 -3 -3 -3 -3 -4 -4 -4 -4 -4 -5 -5 -7 -8 -8 -9 -9 -9 -10 -10 -11 -11 -11 -11 -12 -11 -12 -12 -12 -11 -11 -11 -10 -10 -10 -10 -10 -11
-0 -1 -2 -2 -2 -3 -3 -3 -3 -3 -4 -4 -5 -5 -5 -5 -6 -7 -8 -9 -9 -9 -10 -10 -11 -11 -12 -12 -12 -13 -13 -13 -14 -14 -14 -14 -13 -13 -13 -13 -13 -13 -13 -13
-1 -1 -1 -1 -2 -2 -2 -3 -3 -3 -3 -4 -5 -6 -6 -7 -7 -8 -8 -9 -10 -10 -10 -11 -11 -12 -13 -13 -13 -14 -14 -14 -15 -15 -15 -15 -16 -15 -15 -15 -15 -15 -15 -15
-1 -1 -1 -1 -1 -3 -2 -3 -4 -4 -5 -5 -6 -6 -7 -8 -8 -9 -9 -10 -10 -11 -12 -12 -12 -13 -14 -14 -14 -15 -15 -16 -16 -16 -17 -17 -17 -17 -18 -17 -17 -17 -16 -16
-1 -2 -3 -3 -4 -4 -5 -5 -6 -6 -6 -7 -7 -7 -8 -9 -9 -10 -10 -11 -11 -12 -13 -13 -13 -14 -14 -15 -15 -16 -16 -17 -17 -17 -18 -18 -19 -19 -19 -19 -19 -18 -18 -17
-3 -4 -5 -6 -6 -6 -6 -7 -7 -7 -8 -8 -8 -8 -9 -10 -10 -11 -11 -12 -13 -13 -13 -14 -14 -15 -15 -16 -16 -16 -17 -17 -18 -18 -19 -19 -20 -20 -20 -20 -20 -19 -19 -19

GFSNGP_925_temp_027.txt.gz
Temp
18 20 20 20 21 19 19 18 16 18 16 19 19 19 17 16 19 17 15 14 14 13 12 14 13 13 12 12 12 13 12 12 12 12 11 11 10 9 8 8 7 7 7 6
18 18 18 19 19 19 18 19 17 18 18 18 19 18 16 18 16 15 16 15 14 14 13 13 13 13 12 12 13 12 12 12 11 11 10 9 8 7 7 7 6 6 6 5
16 15 16 14 16 17 19 19 19 18 18 18 17 16 14 14 15 15 15 14 14 14 13 14 14 14 13 13 13 11 9 8 9 9 8 7 6 5 5 5 5 5 4 4
11 12 13 17 18 18 17 17 17 16 16 16 14 13 13 13 13 13 12 11 9 9 12 13 13 12 12 11 10 8 8 8 8 8 6 5 5 5 4 4 3 4 4 4
12 12 15 18 17 17 17 18 17 15 14 14 14 14 13 12 10 9 8 7 6 7 7 8 9 10 10 8 7 6 4 4 4 4 4 4 4 4 4 3 3 3 3 3
9 12 13 15 17 18 16 14 17 15 14 14 15 10 12 11 8 6 5 5 5 5 5 6 5 6 5 3 3 3 3 4 4 3 3 3 3 3 2 2 3 3 3 3
6 9 11 14 17 17 16 15 15 14 14 13 14 12 10 7 5 5 4 4 4 4 3 4 4 5 3 3 3 3 3 3 3 3 3 3 3 1 1 3 2 2 2 2
7 9 14 15 16 16 14 14 14 13 13 12 9 8 7 6 5 4 4 4 4 3 3 3 4 5 3 3 4 4 4 4 4 3 3 2 2 2 2 2 2 1 1 1
12 12 14 15 17 16 13 14 13 13 12 11 9 8 6 5 4 3 3 3 3 3 3 4 4 4 3 3 3 4 3 3 2 2 2 2 1 1 1 1 1 1 1 1
13 15 15 15 13 13 14 13 12 12 10 10 7 6 5 4 4 3 3 3 3 3 3 3 3 3 3 3 3 3 3 2 2 2 2 2 1 1 1 1 1 1 0 0
12 13 13 12 11 9 8 8 8 7 8 7 6 5 4 3 3 2 2 3 3 3 3 3 3 3 2 2 2 2 2 2 1 1 1 1 1 1 1 1 1 0 0 0
11 13 13 12 9 8 8 7 7 6 5 5 5 4 3 2 2 2 2 3 3 3 2 2 1 1 1 1 1 1 0 -0 -0 -0 -0 -0 -1 -0 1 1 1 1 1 1
14 10 9 7 6 7 6 6 5 5 4 3 3 3 2 2 2 2 2 2 2 1 0 0 -1 -1 -1 -1 -1 -1 -1 -2 -2 -2 -2 -2 -3 -3 -3 -2 -2 -0 -0 0
8 8 7 7 6 5 5 4 4 3 3 3 2 2 2 1 1 1 0 0 -0 -1 -2 -2 -2 -3 -3 -2 -2 -2 -3 -3 -4 -4 -4 -4 -4 -4 -4 -3 -3 -2 -2 -2
7 7 7 5 4 4 4 3 3 3 3 3 3 2 1 0 -1 -2 -2 -2 -2 -3 -3 -3 -4 -5 -4 -4 -4 -5 -5 -6 -6 -6 -6 -6 -6 -6 -6 -5 -4 -4 -4 -3
6 5 5 4 4 3 3 3 3 2 2 1 1 -0 -1 -2 -3 -3 -3 -3 -3 -5 -5 -5 -6 -6 -6 -6 -6 -7 -7 -7 -7 -7 -8 -7 -7 -7 -7 -7 -6 -5 -5 -5
5 4 4 3 3 3 3 4 3 1 0 -1 -1 -1 -2 -2 -3 -3 -3 -4 -5 -6 -6 -6 -7 -7 -8 -8 -9 -9 -9 -9 -9 -9 -9 -10 -10 -9 -9 -8 -9 -8 -9 -9
6 6 5 5 4 2 1 1 -0 -1 -1 -2 -2 -2 -2 -3 -4 -4 -4 -5 -5 -7 -8 -8 -8 -8 -9 -10 -10 -10 -10 -11 -11 -11 -12 -12 -12 -12 -12 -11 -11 -11 -11 -11
5 4 3 3 2 1 -0 -1 -2 -2 -2 -2 -3 -4 -4 -4 -4 -5 -5 -6 -7 -8 -9 -9 -9 -10 -10 -11 -11 -11 -12 -13 -13 -13 -14 -14 -14 -14 -14 -13 -14 -14 -14 -13
3 2 1 0 -0 -1 -2 -2 -3 -3 -3 -2 -3 -4 -5 -5 -5 -6 -6 -8 -9 -9 -9 -10 -10 -11 -11 -12 -12 -13 -13 -14 -14 -15 -15 -15 -16 -16 -16 -15 -16 -16 -16 -15
1 0 -0 -1 -2 -2 -2 -3 -3 -4 -3 -3 -3 -4 -5 -5 -6 -6 -7 -8 -9 -9 -10 -10 -11 -12 -12 -13 -13 -14 -14 -15 -15 -16 -16 -17 -17 -17 -17 -17 -17 -18 -17 -17
-1 -1 -2 -2 -3 -4 -3 -3 -3 -4 -4 -4 -5 -5 -6 -7 -7 -8 -8 -9 -10 -10 -11 -11 -12 -13 -13 -13 -14 -14 -15 -16 -16 -17 -17 -18 -18 -18 -19 -19 -19 -19 -19 -18
-1 -2 -2 -3 -3 -4 -4 -4 -4 -4 -4 -5 -5 -6 -7 -7 -8 -8 -9 -10 -10 -11 -11 -12 -13 -13 -14 -14 -15 -15 -16 -16 -17 -17 -18 -18 -19 -19 -20 -20 -20 -20 -20 -20
-2 -3 -3 -4 -3 -4 -4 -5 -5 -5 -5 -6 -6 -6 -7 -8 -9 -9 -10 -10 -11 -12 -12 -13 -14 -14 -15 -15 -16 -16 -17 -17 -18 -18 -19 -19 -19 -19 -20 -20 -20 -20 -20 -20
-3 -3 -4 -3 -3 -4 -5 -5 -6 -7 -7 -7 -7 -8 -8 -9 -8 -10 -11 -11 -12 -13 -13 -14 -14 -15 -15 -16 -16 -17 -17 -18 -18 -19 -19 -20 -20 -20 -20 -20 -20 -21 -21 -21
-3 -4 -5 -6 -6 -6 -7 -6 -7 -8 -9 -9 -9 -9 -9 -10 -10 -11 -12 -12 -13 -14 -14 -15 -15 -16 -16 -17 -17 -17 -18 -18 -19 -19 -20 -20 -21 -20 -20 -21 -21 -21 -21 -21
-7 -7 -7 -7 -8 -8 -8 -8 -8 -9 -9 -9 -9 -10 -10 -11 -12 -12 -13 -13 -14 -15 -15 -16 -16 -16 -17 -17 -18 -18 -19 -19 -19 -20 -20 -21 -21 -21 -21 -21 -21 -21 -21 -21

GFSNGP_925_temp_033.txt.gz
Temp
18 19 19 20 19 18 19 19 20 21 18 21 22 21 20 18 18 18 18 17 16 15 15 14 13 12 12 11 12 12 11 10 10 10 8 7 7 8 8 9 8 8 8 6
18 17 18 18 19 18 18 18 18 18 19 20 19 18 18 16 16 16 15 15 15 15 14 14 13 13 12 11 11 11 10 9 8 8 7 8 8 8 8 7 7 6 5 4
18 15 17 16 17 18 18 18 19 19 21 19 18 17 16 15 15 13 12 12 11 11 11 11 11 10 10 10 9 8 8 7 8 8 8 7 7 7 6 5 4 3 3 3
15 13 17 20 17 18 19 18 18 18 18 18 17 14 13 14 14 12 10 10 9 9 8 7 8 8 8 8 7 7 6 6 6 6 5 5 5 4 3 3 3 3 2 3
15 16 17 18 17 18 18 21 18 18 17 15 14 14 12 9 10 9 8 7 6 6 6 6 6 5 6 5 5 5 4 4 4 4 3 3 3 3 2 2 2 3 3 2
12 16 17 18 18 16 18 19 18 17 15 14 14 17 16 9 8 6 6 5 5 5 5 5 4 4 5 4 4 3 3 3 3 3 3 3 2 3 3 2 2 2 2 1
12 15 16 17 17 17 18 21 16 16 15 15 15 15 12 7 6 5 5 4 4 4 4 4 4 4 4 4 3 3 3 3 3 3 3 3 3 3 2 2 1 1 1 1
12 14 17 15 15 18 19 15 15 15 15 14 10 8 8 7 6 5 5 4 4 4 3 3 4 4 3 2 3 3 3 2 2 2 2 2 2 1 1 0 0 0 0 -0
16 17 16 15 17 16 15 16 14 15 13 11 9 8 7 6 5 5 4 4 4 3 3 2 2 3 2 1 2 2 2 1 1 1 1 1 0 0 0 -0 -0 -0 -1 -1
16 16 15 15 14 14 14 15 14 14 13 11 9 7 6 5 5 4 4 4 3 3 2 1 0 0 0 1 2 1 0 -1 -1 -1 -1 -1 -1 -1 -1 -1 -2 -1 -2 -2
14 14 13 14 14 15 12 11 11 11 11 10 8 6 6 5 4 4 3 2 2 1 0 -1 -1 -2 -1 0 0 -1 -1 -2 -2 -2 -2 -2 -3 -3 -3 -3 -4 -4 -3 -3
15 17 17 17 15 11 11 11 10 9 7 7 7 6 5 4 3 3 2 1 1 -0 -1 -2 -3 -3 -2 -1 -1 -2 -2 -3 -4 -4 -4 -4 -4 -4 -5 -6 -6 -6 -6 -6
17 13 10 8 9 9 9 9 8 8 7 6 5 5 4 3 2 2 1 1 -0 -2 -3 -3 -3 -4 -4 -3 -3 -4 -4 -5 -5 -6 -6 -6 -6 -6 -6 -6 -7 -7 -7 -7
9 11 11 9 10 7 7 6 5 5 5 4 4 3 3 2 1 1 -0 -2 -3 -3 -3 -4 -4 -5 -5 -5 -5 -6 -6 -7 -7 -7 -7 -7 -7 -8 -8 -7 -8 -8 -8 -9
8 7 9 6 5 5 4 4 4 4 3 3 3 2 2 1 0 -1 -2 -3 -4 -4 -4 -5 -5 -6 -7 -6 -7 -7 -7 -8 -8 -9 -9 -10 -9 -9 -9 -9 -9 -10 -10 -10
6 6 6 6 5 4 4 4 4 3 3 3 2 2 1 -1 -2 -3 -4 -4 -3 -4 -6 -6 -7 -7 -8 -7 -8 -8 -9 -10 -10 -10 -10 -11 -11 -11 -11 -11 -11 -11 -12 -12
5 4 4 4 4 4 4 4 4 3 2 2 0 -1 -1 -2 -3 -4 -4 -5 -5 -7 -7 -7 -8 -8 -9 -9 -9 -10 -10 -11 -11 -11 -12 -12 -12 -12 -13 -13 -13 -13 -14 -14
7 6 5 5 4 3 3 2 2 1 1 -1 -2 -2 -3 -3 -4 -5 -6 -7 -8 -8 -9 -9 -9 -9 -10 -10 -11 -11 -12 -12 -12 -13 -13 -14 -15 -15 -15 -15 -14 -15 -16 -16
4 4 3 3 2 2 1 1 -1 -2 -3 -3 -2 -3 -3 -4 -5 -6 -7 -7 -8 -8 -9 -10 -10 -10 -11 -12 -12 -12 -13 -14 -14 -14 -15 -16 -16 -16 -17 -17 -16 -17 -17 -17
1 1 1 0 -0 -1 -2 -2 -3 -3 -3 -3 -4 -4 -5 -6 -6 -7 -7 -7 -7 -8 -10 -10 -10 -11 -12 -12 -13 -14 -14 -15 -15 -16 -17 -17 -18 -18 -18 -18 -19 -18 -19 -18
-0 -0 -1 -1 -2 -2 -2 -2 -3 -3 -4 -4 -4 -5 -6 -7 -7 -7 -8 -8 -9 -10 -10 -10 -11 -12 -13 -13 -14 -14 -15 -15 -16 -17 -18 -18 -19 -19 -19 -20 -20 -20 -20 -20
-1 -2 -2 -2 -3 -3 -4 -4 -4 -5 -5 -5 -6 -7 -7 -8 -8 -8 -8 -8 -10 -10 -11 -11 -12 -12 -13 -14 -14 -15 -16 -16 -17 -17 -18 -19 -20 -20 -20 -21 -21 -21 -21 -21
-2 -2 -3 -4 -4 -5 -5 -5 -5 -5 -6 -7 -7 -7 -7 -8 -8 -8 -8 -10 -10 -11 -11 -12 -13 -13 -14 -14 -15 -15 -16 -17 -17 -18 -18 -19 -20 -21 -21 -21 -21 -22 -22 -22
-3 -4 -4 -5 -5 -5 -5 -6 -7 -7 -7 -7 -7 -7 -7 -9 -10 -9 -9 -10 -11 -11 -12 -13 -14 -14 -15 -15 -16 -16 -17 -17 -18 -18 -19 -19 -20 -20 -21 -21 -21 -21 -21 -22
-4 -4 -4 -5 -5 -6 -6 -6 -7 -7 -7 -8 -8 -9 -9 -9 -9 -10 -11 -12 -12 -12 -13 -14 -14 -15 -15 -16 -16 -17 -17 -18 -18 -19 -19 -20 -20 -21 -21 -21 -21 -22 -21 -21
-6 -6 -7 -7 -7 -7 -7 -7 -7 -8 -8 -9 -9 -9 -10 -10 -10 -11 -12 -13 -13 -13 -14 -14 -15 -16 -16 -17 -17 -17 -18 -18 -19 -19 -20 -20 -21 -21 -21 -22 -22 -22 -22 -22
-9 -9 -9 -9 -10 -10 -9 -9 -9 -9 -10 -10 -10 -10 -11 -11 -12 -12 -13 -13 -14 -14 -15 -15 -16 -17 -17 -17 -18 -18 -19 -19 -19 -20 -20 -21 -21 -22 -22 -22 -22 -22 -22 -22